FLOCK 4Y 13

导读

FLOCK 4Y 13是美国发射的一颗遥感小卫星,于协调世界时2023年1月3日8时发射升空。该卫星隶属于行星实验室公司,属于Flock系列卫星群,主要服务于地球观测任务,可提供高分辨率对地影像,应用在农业监测、自然资源勘探、灾害评估与城市规划等诸多领域。作为低轨遥感卫星,它延续了该系列卫星成本低、部署灵活的特点,补充了全球对地观测数据获取能力,目前已在轨稳定运行超三年,持续回传观测数据支撑科研与商业应用。

基本信息
目录编号:
55079
目录名称:
FLOCK 4Y 13
国际标识:
2023-001BY
轨道中心:
EARTH
卫星名称:
FLOCK 4Y 13
卫星全名:
--
卫星状态:
已陨落 最后检测时间 2025-08-11
发射日期:
2023-01-03 UTC
国别 :
美国 (US)
星等 :
--
轨道信息
数据来源 国际轨道数据
星历时间: 2025-08-11T22:01:24+0800
轨道信息已过期349天
半长轴: 6542.709km
偏心率: 0.001382
轨道倾角: 97.333°
近地点辐角 268.251°
升交点赤经 301.458°
平近点角 91.721°
近地点: 155.531km
远地点: 173.617km
周期: 87.780分钟
每日圈数: 16.40463
详细信息
使用方式:
暂无